Retour au catalogue

MIDAS 4 DEB

ActifPO
NORAD 195·DEBRIS·🇺🇸 United States

Lancé Oct 21, 1961 depuis Vandenberg Space Force Base

Loading…

Prochains Passages (prochaines 24 heures)

TLE

FraisSource: Space-Track

Époque: Sep 14, 2026, 08:25 UTC

1 00195U 61028D   26257.35116564  .00000005  00000-0  39368-2 0  9991
2 00195  95.8511 222.9207 0122012 353.9893   5.9492  8.65620402 50746

Suivez MIDAS 4 DEB en temps réel avec AllMySat

Download on the App Store